Regional Weather Roundup
Issued by NWS State College, PA

Home | Current Version | Previous Version | Text Only | Print | Product List | Glossary On
Versions: 1 2 3 4 5 6 7 8 9 10 11 12 13 14 15 16 17 18 19 20 21 22 23 24 25 26 27 28 29 30 31 32 33 34 35 36 37 38 39 40 41 42 43 44 45 46 47 48 49 50
000
ASUS41 KCTP 140603
RWRCTP

REGIONAL WEATHER ROUNDUP
NATIONAL WEATHER SERVICE STATE COLLEGE PA
200 AM EDT MON JUL 14 2014

Note: "fair" indicates few or no clouds below 12,000 feet with no
significant weather and/or obstructions to visibility.

* = STATION THAT DOES NOT REPORT PRECIPITATION /E.G. RAIN...SNOW...ETC/
    THUNDER OR FOG.

PAZ002>004-007>009-013>016-020>023-029>032-140700-
WESTERN PENNSYLVANIA

CITY           SKY/WX    TMP DP  RH WIND       PRES   REMARKS
ERIE           CLEAR     70  61  73 S6        29.89S
MEADVILLE      MOCLDY    67  64  90 S5        29.94S
FRANKLIN*      CLOUDY    66  64  94 SW5       29.96S
NEW CASTLE       N/A     68  68 100 CALM      29.94F
BEAVER COUNTY  NOT AVBL
BUTLER*        CLEAR     68  64  88 S3        29.96F
PITTSBURGH INT PTCLDY    72  69  90 S5        29.94F
PITTSBURGH     CLOUDY    70  68  93 S7        29.95F FOG
INDIANA*       CLOUDY    70  68  94 SW7       30.01R FOG
LATROBE          N/A     72  72 100 S10       29.97F
WASHINGTON CO* CLOUDY    70  66  88 CALM      29.96F
$$

PAZ004>006-010>012-017>019-024>028-033>037-041-042-045-046-049>053-140700-
CENTRAL PENNSYLVANIA

CITY           SKY/WX    TMP DP  RH WIND       PRES   REMARKS
BRADFORD       MOCLDY    66  64  93 VRB3      29.97S
DUBOIS         CLOUDY    68  67  96 SW6       29.96S FOG
CLEARFIELD     CLOUDY    68  68 100 SW5       29.96S FOG
JOHNSTOWN      CLOUDY    67  65  93 SW8       30.01S
ALTOONA        MOCLDY    70  68  93 S7        29.98S
STATE COLLEGE  CLOUDY    68  67  98 SW3       29.95S
WILLIAMSPORT   CLOUDY    71  68  90 CALM      29.90F
SELINSGROVE    CLOUDY    70  69  97 CALM      29.93S
FT INDIANTOWN  CLOUDY    70  70 100 S5        29.94R
CAPITAL CITY   MOCLDY    70  67  90 W3        29.92F
HARRISBURG     MOCLDY    72  68  87 SE3       29.92S
YORK           CLOUDY    68  67  96 CALM      29.93S
$$

PAZ038>040-043-044-047-048-054-055-060>062-067>071-140700-
EASTERN PENNSYLVANIA

CITY           SKY/WX    TMP DP  RH WIND       PRES   REMARKS
SCRANTON       CLOUDY    71  67  87 SW3       29.93S
MOUNT POCONO   MOCLDY    67  64  90 W6        29.96F
ALLENTOWN      CLOUDY    72  69  90 CALM      29.93S
QUAKERTOWN*    CLOUDY    70  70 100 S5        29.94S
READING        CLOUDY    71  68  90 S6        29.92S
LANCASTER      CLOUDY    70  68  93 CALM      29.94S
COATESVILLE    CLOUDY    68  68 100 W3        29.96S
POTTSTOWN      CLOUDY    70  67  90 CALM      29.95S
BLUE BELL      CLOUDY    72  70  94 CALM      29.93S
DOYLESTOWN     CLOUDY    70  70 100 S3        29.92F
WILLOW GROVE   NOT AVBL
NORTH PHILA    CLOUDY    73  67  81 CALM      29.94F
PHILADELPHIA   CLOUDY    75  67  76 SW8       29.93F
$$


USA.gov is the U.S. government's official web portal to all federal, state and local government web resources and services.